Regional Weather Roundup
Issued by NWS

Home | Current Version | Previous Version | Text Only | Print | Product List | Glossary Off
Versions: 1 2 3 4 5 6 7 8 9 10 11 12 13 14 15 16 17 18 19 20 21 22 23 24 25 26 27 28 29 30 31 32 33 34 35 36 37 38 39 40 41 42 43 44 45 46 47 48 49 50

000
ASUS45 KABQ 020801
RWRNM
WEATHER ROUNDUP FOR NEW MEXICO
NATIONAL WEATHER SERVICE ALBUQUERQUE NM
200 AM MDT THU OCT 02 2014

NOTE: "FAIR" MEANS FEW OR NO CLOUDS BELOW 12,000 FEET AGL WITH NO
       SIGNIFICANT WEATHER OR OBSTRUCTIONS TO VISION.

      THIS PRODUCT IS RELEASED AS TWO VERSIONS.  ONE VERSION NEAR
      THE TOP OF THE HOUR CONTAINING PRELIMINARY DATA FROM ALBUQUERQUE
      AND OTHER STATIONS.  A FINAL VERSION WITH ADDITIONAL DATA IS
      ISSUED ABOUT 10 MINUTES AFTER THE HOUR.

NMZ501-503-504-510>518-020900-
NORTHWEST PLATEAU/NORTHCENTRAL MOUNTAINS

CITY           SKY/WX    TMP DP  RH WIND       PRES   REMARKS
FARMINGTON     CLEAR     45  31  58 W8        30.11R
LOS ALAMOS     CLEAR     47  36  63 W3        30.11R
SANTA FE       PTCLDY    50  35  56 N13       30.05R
TAOS           CLOUDY    43  32  65 CALM      30.10S
ANGEL FIRE     FAIR      40  31  69 SW3       30.11R

$$
NMZ402-403-502-505>509-020900-
WESTCENTRAL MOUNTAINS/SOUTHWEST MOUNTAINS

CITY           SKY/WX    TMP DP  RH WIND       PRES   REMARKS
GALLUP         CLEAR     46  34  62 NE8       30.16R
GRANTS         CLEAR     45  36  70 NW8       30.15R
SILVER CITY    CLEAR     54  36  50 N10       30.07S

$$
NMZ407-409-411-412-020900-
SOUTHERN DESERTS

CITY           SKY/WX    TMP DP  RH WIND       PRES   REMARKS
LORDSBURG      FAIR      59  34  38 MISG      30.01R
DEMING         CLEAR     57  39  51 W8        30.00R
LAS CRUCES     CLEAR     61  36  39 W10       29.99S
HOLLOMAN AFB   CLEAR     65  33  30 W7        29.93R
ALAMOGORDO     CLEAR     59  39  47 CALM      29.96R
T OR C         CLEAR     63  33  32 NW3       30.00R

$$
NMZ519>523-020900-
CENTRAL VALLEYS/CENTRAL HIGHLANDS

CITY           SKY/WX    TMP DP  RH WIND       PRES   REMARKS
ALBUQUERQUE    PTCLDY    60  36  40 N12       30.04R
DOUBLE EAGLE   MOCLDY    50  35  54 NW5       30.07R
CLINES CORNERS CLEAR     46  34  62 NW12      30.04S
BELEN          NOT AVBL
SOCORRO        FAIR      60  34  36 NW10G16   29.99S

$$
NMZ524>526-539-540-020900-
SOUTHCENTRAL MOUNTAINS

CITY           SKY/WX    TMP DP  RH WIND       PRES   REMARKS
RUIDOSO        NOT AVBL

$$
NMZ527>531-020900-
NORTHEAST HIGHLANDS/NORTHEAST PLAINS

CITY           SKY/WX    TMP DP  RH WIND       PRES   REMARKS
LAS VEGAS      CLEAR     47  32  56 N3        30.04R
RATON          PTCLDY    48  38  68 N18G25    30.00R
CLAYTON        CLOUDY    53  42  66 NW21G32   29.94R

$$
NMZ532>537-020900-
EASTCENTRAL PLAINS

CITY           SKY/WX    TMP DP  RH WIND       PRES   REMARKS
TUCUMCARI      PTCLDY    65  35  33 N12       29.86R
CANNON AFB     CLEAR     60  42  52 W7        29.87R
CLOVIS AIRPORT   N/A     52  43  71 NW14      29.89R

$$
NMZ028-029-538-020900-
SOUTHEAST PLAINS

CITY           SKY/WX    TMP DP  RH WIND       PRES   REMARKS
ROSWELL        CLEAR     56  44  64 CALM      29.86R
CARLSBAD       CLEAR     63  44  50 W10       29.85S
HOBBS          CLEAR     61  45  55 W9        29.88S


$$


USA.gov is the U.S. government's official web portal to all federal, state and local government web resources and services.